Location: Observatoire
(46.1952°N, 5.3391°E)
Time: 03:08:17
(UTC+01:00)

Altair - Pass Details

Date: 23 February 2026
Orbit: 1502 x 1682 km, 47.2° (Epoch: 13 March)

Event Time Altitude Azimuth Distance (km) Brightness Sun altitude
Rises 05:58:20 0° 262° (W) 4,634 - -16.4°
Reaches altitude 10° 06:01:19 10° 263° (W) 3,659 - -15.8°
Exits shadow 06:03:34 20° 264° (W) 2,955 8.3 -15.4°
Maximum altitude 06:10:35 86° 352° (N) 1,538 7.5 -14.2°
Drops below altitude 10° 06:20:08 10° 83° (E) 3,768 11.0 -12.6°
Sets 06:23:15 0° 84° (E) 4,777 12.1 -12.0°
